N744T KMEM-KBHM

Flight info

Callsign N744T
Flight time 0h 27m
Altitude 4500
Route KMEM DCT KBHM
Aircraft TBM9/L-SDE3FGHIRWY/L

Departure

Time 2026-04-17 00:59
Airport Memphis International Airport (KMEM)

Arrival

Time 2026-04-17 01:26
Airport Birmingham-Shuttlesworth International Airport (KBHM)
Time Latitude Longitude Altitude Speed Heading
2026-04-17 00:43 35.05458 -89.98109 297 ft 0 kts 91°
2026-04-17 00:53 35.05472 -89.98090 299 ft 6 kts 349°
2026-04-17 00:54 35.05502 -89.98147 292 ft 12 kts 285°
2026-04-17 00:54 35.05505 -89.98163 291 ft 0 kts 281°
2026-04-17 00:54 35.05506 -89.98169 294 ft 2 kts 276°
2026-04-17 00:55 35.05510 -89.98144 296 ft 8 kts 114°
2026-04-17 00:55 35.05492 -89.98065 299 ft 12 kts 94°
2026-04-17 00:55 35.05490 -89.97969 309 ft 10 kts 90°
2026-04-17 00:55 35.05488 -89.97881 315 ft 10 kts 93°
2026-04-17 00:56 35.05471 -89.97799 319 ft 10 kts 124°
2026-04-17 00:56 35.05446 -89.97736 321 ft 0 kts 101°
2026-04-17 00:57 35.05446 -89.97735 321 ft 2 kts 101°
2026-04-17 00:57 35.05438 -89.97654 322 ft 12 kts 111°
2026-04-17 00:58 35.05380 -89.97613 321 ft 15 kts 179°
2026-04-17 00:58 35.05173 -89.97645 313 ft 54 kts 206°
2026-04-17 00:58 35.04840 -89.97664 309 ft 64 kts 169°
2026-04-17 00:58 35.04475 -89.97591 333 ft 94 kts 174°
2026-04-17 00:59 35.03547 -89.97303 656 ft 114 kts 171°
2026-04-17 00:59 35.02783 -89.97149 1055 ft 113 kts 178°
2026-04-17 00:59 35.01977 -89.97023 1413 ft 121 kts 177°
2026-04-17 00:59 35.01126 -89.96824 1823 ft 132 kts 166°
2026-04-17 01:00 35.00574 -89.96492 2116 ft 136 kts 149°
2026-04-17 01:00 35.00005 -89.95535 2512 ft 152 kts 105°
2026-04-17 01:00 35.00208 -89.93922 3123 ft 150 kts 58°
2026-04-17 01:00 35.00565 -89.93151 3305 ft 156 kts 54°
2026-04-17 01:01 35.01317 -89.92179 3519 ft 167 kts 14°
2026-04-17 01:01 35.02509 -89.91693 3477 ft 198 kts 23°
2026-04-17 01:01 35.03582 -89.90510 3483 ft 221 kts 53°
2026-04-17 01:01 35.04162 -89.88720 3484 ft 234 kts 82°
2026-04-17 01:02 35.04064 -89.86726 3484 ft 239 kts 108°
2026-04-17 01:02 35.03296 -89.84983 3671 ft 230 kts 133°
2026-04-17 01:02 35.02111 -89.83682 3854 ft 221 kts 146°
2026-04-17 01:02 35.00926 -89.82575 4177 ft 216 kts 147°
2026-04-17 01:03 34.99748 -89.81524 4665 ft 202 kts 153°
2026-04-17 01:03 34.98510 -89.80745 4925 ft 205 kts 156°
2026-04-17 01:03 34.97195 -89.79920 4902 ft 219 kts 156°
2026-04-17 01:03 34.95819 -89.79038 4904 ft 227 kts 157°
2026-04-17 01:04 34.94373 -89.78207 4901 ft 232 kts 161°
2026-04-17 01:04 34.92903 -89.77371 4899 ft 236 kts 154°
2026-04-17 01:04 34.91528 -89.76237 4899 ft 239 kts 153°
2026-04-17 01:04 34.90062 -89.75358 4905 ft 237 kts 161°
2026-04-17 01:05 34.88670 -89.74228 4851 ft 245 kts 141°
2026-04-17 01:05 34.87427 -89.72743 4724 ft 248 kts 141°
2026-04-17 01:05 34.86424 -89.71056 4797 ft 250 kts 116°
2026-04-17 01:05 34.86079 -89.68977 4876 ft 251 kts 97°
2026-04-17 01:06 34.85933 -89.66878 4977 ft 248 kts 104°
2026-04-17 01:06 34.85413 -89.64886 4991 ft 248 kts 114°
2026-04-17 01:06 34.84781 -89.62919 4994 ft 249 kts 115°
2026-04-17 01:06 34.84129 -89.60959 4996 ft 250 kts 116°
2026-04-17 01:07 34.83460 -89.59005 4997 ft 251 kts 116°
2026-04-17 01:07 34.82790 -89.57034 5017 ft 251 kts 116°
2026-04-17 01:07 34.82128 -89.55071 5027 ft 251 kts 115°
2026-04-17 01:07 34.81465 -89.53101 5030 ft 251 kts 115°
2026-04-17 01:08 34.80804 -89.51142 5033 ft 251 kts 116°
2026-04-17 01:08 34.80142 -89.49189 5039 ft 251 kts 116°
2026-04-17 01:08 34.79480 -89.47227 5045 ft 251 kts 116°
2026-04-17 01:08 34.78818 -89.45253 5039 ft 251 kts 115°
2026-04-17 01:09 34.78161 -89.43292 5043 ft 251 kts 115°
2026-04-17 01:09 34.77492 -89.41318 5040 ft 251 kts 117°
2026-04-17 01:09 34.76773 -89.39386 5051 ft 251 kts 118°
2026-04-17 01:09 34.76037 -89.37457 5051 ft 251 kts 118°
2026-04-17 01:10 34.75299 -89.35531 5053 ft 251 kts 118°
2026-04-17 01:10 34.74557 -89.33605 5050 ft 251 kts 118°
2026-04-17 01:10 34.73816 -89.31684 5055 ft 251 kts 118°
2026-04-17 01:10 34.73087 -89.29788 5056 ft 251 kts 118°
2026-04-17 01:11 34.72348 -89.27867 5049 ft 251 kts 118°
2026-04-17 01:11 34.71610 -89.25949 5058 ft 251 kts 118°
2026-04-17 01:11 34.70869 -89.24023 5057 ft 251 kts 118°
2026-04-17 01:11 34.70133 -89.22108 5044 ft 251 kts 118°
2026-04-17 01:12 34.69394 -89.20189 5038 ft 251 kts 118°
2026-04-17 01:12 34.68656 -89.18269 5032 ft 251 kts 118°
2026-04-17 01:12 34.67919 -89.16349 5028 ft 251 kts 118°
2026-04-17 01:12 34.67184 -89.14429 5031 ft 251 kts 118°
2026-04-17 01:13 34.66448 -89.12504 5030 ft 251 kts 118°
2026-04-17 01:13 34.65716 -89.10581 5033 ft 251 kts 118°
2026-04-17 01:13 34.64983 -89.08658 5035 ft 251 kts 118°
2026-04-17 01:13 34.64249 -89.06737 5039 ft 251 kts 118°
2026-04-17 01:14 34.63516 -89.04816 5039 ft 251 kts 118°
2026-04-17 01:14 34.62781 -89.02891 5036 ft 251 kts 118°
2026-04-17 01:14 34.62050 -89.00973 5032 ft 251 kts 118°
2026-04-17 01:14 34.61329 -88.99083 5029 ft 251 kts 118°
2026-04-17 01:15 34.60595 -88.97159 5029 ft 251 kts 118°
2026-04-17 01:15 34.59863 -88.95238 5025 ft 251 kts 118°
2026-04-17 01:15 34.59131 -88.93314 5027 ft 251 kts 118°
2026-04-17 01:15 34.58399 -88.91392 5024 ft 251 kts 118°
2026-04-17 01:16 34.57669 -88.89471 5023 ft 251 kts 118°
2026-04-17 01:16 34.56938 -88.87553 5026 ft 251 kts 118°
2026-04-17 01:16 34.56207 -88.85628 5026 ft 251 kts 118°
2026-04-17 01:16 34.55475 -88.83701 5027 ft 251 kts 118°
2026-04-17 01:17 34.54748 -88.81782 5019 ft 251 kts 118°
2026-04-17 01:17 34.54019 -88.79860 5014 ft 251 kts 118°
2026-04-17 01:17 34.53296 -88.77957 5013 ft 251 kts 118°
2026-04-17 01:17 34.52558 -88.76016 5012 ft 251 kts 118°
2026-04-17 01:18 34.51837 -88.74117 5007 ft 251 kts 118°
2026-04-17 01:18 34.51754 -88.73900 5007 ft 251 kts 118°
2026-04-17 01:18 34.51617 -88.73539 5005 ft 251 kts 118°
2026-04-17 01:18 34.40274 -88.43625 5001 ft 252 kts 118°
2026-04-17 01:19 34.35572 -88.31155 4978 ft 251 kts 118°
2026-04-17 01:19 34.25404 -88.04032 5041 ft 252 kts 118°
2026-04-17 01:19 34.13981 -87.73178 5083 ft 251 kts 117°
2026-04-17 01:19 34.06659 -87.53229 5082 ft 251 kts 117°
2026-04-17 01:20 34.05270 -87.49436 5094 ft 251 kts 117°
2026-04-17 01:20 34.04045 -87.46104 5103 ft 251 kts 118°
2026-04-17 01:20 34.03361 -87.44166 5103 ft 252 kts 116°
2026-04-17 01:20 34.02663 -87.42228 5107 ft 251 kts 117°
2026-04-17 01:21 34.01955 -87.40299 5113 ft 251 kts 117°
2026-04-17 01:21 34.01253 -87.38376 5115 ft 251 kts 117°
2026-04-17 01:21 34.00547 -87.36443 5115 ft 251 kts 117°
2026-04-17 01:21 33.99822 -87.34583 4784 ft 237 kts 121°
2026-04-17 01:22 33.99040 -87.32949 4404 ft 217 kts 127°
2026-04-17 01:22 33.97293 -87.29970 4196 ft 168 kts 133°
2026-04-17 01:22 33.84748 -87.10085 5265 ft 207 kts 134°
2026-04-17 01:22 33.76909 -86.98679 3033 ft 217 kts 136°
2026-04-17 01:23 33.70718 -86.87659 3148 ft 196 kts 126°
2026-04-17 01:23 33.69327 -86.84779 3092 ft 198 kts 128°
2026-04-17 01:23 33.68373 -86.82293 2999 ft 199 kts 117°
2026-04-17 01:23 33.67837 -86.80835 3090 ft 188 kts 124°
2026-04-17 01:24 33.65211 -86.77491 3195 ft 217 kts 148°
2026-04-17 01:24 33.63155 -86.75919 2739 ft 191 kts 160°
2026-04-17 01:24 33.62096 -86.75226 2540 ft 147 kts 160°
2026-04-17 01:24 33.61121 -86.74717 2192 ft 107 kts 178°
2026-04-17 01:25 33.59869 -86.74640 1675 ft 108 kts 199°
2026-04-17 01:25 33.58988 -86.74663 1281 ft 119 kts 191°
2026-04-17 01:25 33.58194 -86.74701 942 ft 101 kts 189°
2026-04-17 01:25 33.57532 -86.74717 734 ft 90 kts 191°
2026-04-17 01:26 33.56930 -86.74721 631 ft 82 kts 189°
2026-04-17 01:26 33.56549 -86.74739 627 ft 32 kts 177°
2026-04-17 01:26 33.56422 -86.74686 619 ft 17 kts 96°
2026-04-17 01:26 33.56426 -86.74621 618 ft 2 kts 85°
2026-04-17 01:27 33.56426 -86.74620 618 ft 0 kts 85°
2026-04-17 01:29 33.56618 -86.74586 623 ft 12 kts 12°
2026-04-17 01:29 33.56641 -86.74486 624 ft 15 kts 88°
2026-04-17 01:30 33.56668 -86.74393 631 ft 12 kts 52°
2026-04-17 01:30 33.56698 -86.74341 631 ft 0 kts 62°
2026-04-17 01:30 33.56740 -86.74275 630 ft 15 kts 53°
2026-04-17 01:30 33.56762 -86.74239 630 ft 0 kts 77°